Home   Weather   Seattle   Past weeks
Flag for USA

Past Weather in Seattle, Washington, USA — Yesterday and Last 2 Weeks

Now
71 °F

Partly sunny.


Feels Like: 77 °F
Forecast: 70 / 55 °F
Wind: 7 mph from Northwest

Location: Seattle Boeing Field

Current Time: Jul 18, 2019 at 5:13:56 pm

Latest Report: Jul 18, 2019 at 3:53 pm


Visibility: 10 mi

Pressure: 30.03 "Hg

Humidity: 39%

Dew Point: 45 °F

Location of SeattleLocation

Past Weather in Seattle — Graph

°F

Seattle Temperature Yesterday

Maximum temperature yesterday: 72 °F (at 1:53 pm)
Minimum temperature yesterday: 61 °F (at 11:53 pm)
Average temperature yesterday: 65 °F

High & Low Weather Summary for the Past Weeks

 TemperatureHumidityPressure
High80 °F (Jul 16, 3:53 pm)93% (Jul 18, 3:53 am)30.15 "Hg (Jul 18, 3:53 am)
Low56 °F (Jul 4, 4:34 am)32% (Jul 12, 6:53 pm)29.87 "Hg (Jul 17, 5:53 pm)
Average66 °F66%30.03 "Hg
* Reported Jul 3 3:53 pm — Jul 18 3:53 pm, Seattle. Weather by CustomWeather, © 2019

Note: Actual official high and low records may vary slightly from our data, if they occured in-between our weather recording intervals... More about our weather records

Advertising

Seattle Weather History for the Previous 24 Hours

Scroll right to see more
 ConditionsComfort  
Time TempWeatherWind HumidityBarometerVisibility
3:53 pm
Thu, Jul 18
71 °FPartly sunny.7 mph39%30.03 "Hg10 mi
2:53 pm74 °FPartly sunny.3 mph41%30.03 "Hg10 mi
1:53 pm69 °FPartly sunny.3 mph49%30.04 "Hg10 mi
12:53 pm67 °FPartly sunny.6 mph57%30.05 "Hg10 mi
11:53 am67 °FPartly sunny.N/A57%30.05 "Hg10 mi
10:53 am66 °FPartly sunny.12 mph54%30.05 "Hg10 mi
9:53 am63 °FScattered clouds.5 mph63%30.04 "Hg10 mi
8:53 am61 °FPartly sunny.9 mph75%30.04 "Hg10 mi
7:53 am59 °FMostly cloudy.3 mph78%30.03 "Hg10 mi
6:53 am58 °FMostly cloudy.7 mph84%30.02 "Hg10 mi
5:53 am58 °FCloudy.6 mph84%30.00 "Hg10 mi
4:53 am58 °FOvercast.6 mph84%30.00 "Hg10 mi
3:53 am58 °FOvercast.6 mph93%29.98 "Hg8 mi
2:58 am58 °FLight rain. Fog.8 mph90%29.97 "Hg6 mi
1:53 am59 °FLight rain. Overcast.5 mph87%29.95 "Hg10 mi
1:16 am60 °FLight rain. Overcast.7 mph86%29.94 "Hg7 mi
1:09 am60 °FOvercast.7 mph86%29.94 "Hg7 mi
12:53 am60 °FLight rain. Fog.8 mph86%29.93 "Hg5 mi
11:53 pm
Wed, Jul 17
61 °FLight rain. Overcast.6 mph87%29.90 "Hg8 mi
11:23 pm65 °FOvercast.5 mph81%29.89 "Hg10 mi
10:53 pm65 °FMostly cloudy.5 mph85%29.88 "Hg10 mi
9:53 pm65 °FPassing clouds.7 mph85%29.87 "Hg10 mi
8:53 pm66 °FBroken clouds.7 mph81%29.88 "Hg10 mi
7:53 pm67 °FCloudy.9 mph79%29.89 "Hg10 mi
7:37 pm67 °FCloudy.9 mph79%29.88 "Hg10 mi
6:53 pm67 °FBroken clouds.12 mph76%29.87 "Hg10 mi
5:53 pm68 °FPartly sunny.12 mph73%29.87 "Hg10 mi
Weather by CustomWeather, © 2019

See weather overview